Location: Arbon
(43.0005°N, 0.7472°E)
Time: 15:26:22
(UTC+00:00)

A-11 Canister half - Pass Details

Date: 03 December 2020
Orbit: 1517 x 1683 km, 47.2° (Epoch: 15 January)

Event Time Altitude Azimuth Distance (km) Brightness Sun altitude
Rises 17:13:16 0° 296° (WNW) 4,918 12.3 -9.1°
Reaches altitude 10° 17:16:37 10° 290° (WNW) 3,938 11.9 -9.7°
Maximum altitude 17:25:53 42° 224° (SW) 2,242 10.4 -11.3°
Drops below altitude 10° 17:35:07 10° 157° (SSE) 3,917 11.1 -12.9°
Sets 17:38:28 0° 151° (SSE) 4,888 11.5 -13.4°
